Location: Il Ritiro
(43.4167°N, 13.1333°E)
Time: 07:48:02
(UTC+00:00)

Cosmos 2327 Rocket - Pass Details

Date: 05 July 2020
Orbit: 943 x 1009 km, 83.0° (Epoch: 06 August)

Event Time Altitude Azimuth Distance (km) Brightness Sun altitude
Exits shadow 21:52:14 34° 195° (SSW) 1,552 5.1 -21.4°
Maximum altitude 21:55:10 80° 278° (W) 983 4.5 -21.6°
Drops below altitude 10° 22:01:20 10° 6° (N) 2,690 7.7 -21.9°
Sets 22:03:50 0° 7° (N) 3,633 8.6 -22.1°
